Grand Forks Air Force Base, ND

7:46 PM CST on February 05, 2016 (GMT -0600)
Grand Forks Air Force Base

Weather History for KRDR - November, 2013

Change the Weather History Date:

Friday, November 8, 2013

  Actual Average Record
Temperature  
Mean Temperature 31 °F -  
Max Temperature 41 °F 36 °F 73 °F (1999)
Min Temperature 21 °F 19 °F -11 °F (2003)
Degree Days  
Heating Degree Days 34    
Moisture  
Dew Point 28 °F    
Average Humidity 81    
Maximum Humidity 100    
Minimum Humidity 54    
Precipitation  
Precipitation 0.00 in - - ()
Sea Level Pressure  
Sea Level Pressure 29.74 in    
Wind  
Wind Speed 8 mph (SSE)    
Max Wind Speed 22 mph    
Max Gust Speed 32 mph    
Visibility 10 miles    
Events      
Averages and records for this station are not official NWS values.
T = Trace of Precipitation, MM = Missing Value Source: NWS Daily Summary

Daily Weather History Graph

Daily Weather History Graph

Search for Another Location

Airport or City:

Trip Planner

Search our weather history database for the weather conditions in past years. The results will help you decide how hot, cold, wet, or windy it might be!

Date:

Astronomy

Nov. 08, 2013 Rise Set
Actual Time 7:25 AM CST 5:00 PM CST
Civil Twilight 6:52 AM CST 5:33 PM CST
Nautical Twilight 6:15 AM CST 6:10 PM CST
Astronomical Twilight 5:38 AM CST 6:47 PM CST
Moon 12:22 PM CST (11/8) 10:24 PM CST (11/8)
Length of Visible Light 10h 41m
Length of Day
9h 34m
Waxing Crescent, 33% of the Moon is Illuminated
Nov 8
Waxing Crescent
Nov 9
First Quarter
Nov 17
Full
Nov 25
Last Quarter
Dec 2
New

Hourly Weather History & Observations

Time (CST) Temp. Windchill Dew Point Humidity Pressure Visibility Wind Dir Wind Speed Gust Speed Precip Events Conditions
12:58 AM 21.4 °F 15.1 °F 18.9 °F 90% 30.12 in 10.0 mi SW 4.6 mph - N/A   Clear
1:58 AM 21.2 °F 14.9 °F 18.7 °F 90% 30.10 in 10.0 mi SW 4.6 mph - N/A   Clear
2:58 AM 21.2 °F 16.4 °F 19.0 °F 91% 30.07 in 10.0 mi South 3.5 mph - N/A   Clear
3:58 AM 26.8 °F 20.2 °F 24.3 °F 90% 30.04 in 10.0 mi SE 5.8 mph - N/A   Scattered Clouds
4:58 AM 25.9 °F 19.2 °F 24.1 °F 93% 30.03 in 10.0 mi SSE 5.8 mph - N/A   Overcast
5:58 AM 26.6 °F 17.5 °F 24.8 °F 93% 29.98 in 10.0 mi SSE 9.2 mph - N/A   Mostly Cloudy
6:58 AM 27.0 °F 18.7 °F 24.6 °F 91% 29.95 in 10.0 mi SE 8.1 mph - N/A   Mostly Cloudy
7:58 AM 27.9 °F 17.8 °F 25.7 °F 92% 29.91 in 10.0 mi SE 11.5 mph - N/A   Overcast
8:58 AM 31.6 °F 22.6 °F 28.0 °F 87% 29.86 in 10.0 mi SE 11.5 mph - N/A   Overcast
9:58 AM 34.7 °F 27.5 °F 28.6 °F 78% 29.83 in 10.0 mi ESE 9.2 mph - N/A   Overcast
10:58 AM 37.8 °F 29.8 °F 29.1 °F 71% 29.81 in 10.0 mi ESE 12.7 mph - N/A   Mostly Cloudy
11:58 AM 39.6 °F 30.6 °F 28.4 °F 64% 29.74 in 10.0 mi ESE 17.3 mph - N/A   Overcast
12:58 PM 40.8 °F 34.1 °F 28.9 °F 63% 29.71 in 10.0 mi SE 11.5 mph - N/A   Overcast
1:13 PM 41.0 °F 33.1 °F 28.4 °F 61% 29.65 in 10.0 mi SE 15.0 mph 32.2 mph N/A   Overcast
1:16 PM 41.0 °F 32.5 °F 28.4 °F 61% 29.64 in 10.0 mi SE 17.3 mph 32.2 mph N/A   Overcast
1:18 PM 41.0 °F 31.4 °F 26.6 °F 57% 29.64 in 10.0 mi SE 21.9 mph 32.2 mph N/A   Overcast
1:30 PM 41.0 °F 32.5 °F 26.6 °F 57% 29.64 in 10.0 mi SE 17.3 mph 26.5 mph N/A   Overcast
1:55 PM 41.0 °F 31.9 °F 26.6 °F 57% 29.66 in 10.0 mi SE 19.6 mph - N/A   Overcast
1:56 PM 41.0 °F 32.5 °F 26.6 °F 57% 29.62 in 10.0 mi SE 17.3 mph - N/A   Overcast
2:58 PM 41.0 °F 33.9 °F 25.3 °F 54% 29.64 in 10.0 mi ESE 12.7 mph - N/A   Overcast
3:58 PM 40.8 °F 34.1 °F 25.7 °F 55% 29.62 in 10.0 mi SE 11.5 mph - N/A   Overcast
4:58 PM 39.7 °F 34.3 °F 29.5 °F 67% 29.62 in 10.0 mi SSE 8.1 mph - N/A   Overcast
5:58 PM 38.3 °F 31.4 °F 31.3 °F 76% 29.64 in 10.0 mi SSE 10.4 mph - N/A   Overcast
6:34 PM 37.4 °F 30.8 °F 32.0 °F 81% 29.60 in 10.0 mi South 9.2 mph - N/A   Overcast
6:43 PM 37.4 °F 30.8 °F 32.0 °F 81% 29.60 in 10.0 mi South 9.2 mph - N/A   Overcast
6:58 PM 36.5 °F 30.3 °F 32.9 °F 87% 29.65 in 10.0 mi South 8.1 mph - 0.00 in   Overcast
7:58 PM 35.6 °F 30.7 °F 33.1 °F 91% 29.64 in 10.0 mi South 5.8 mph - N/A   Overcast
8:58 PM 34.3 °F 29.2 °F 33.3 °F 96% 29.64 in 10.0 mi SSE 5.8 mph - N/A   Overcast
9:58 PM 33.8 °F - 33.1 °F 97% 29.63 in 10.0 mi SSE 1.2 mph - N/A   Overcast
10:28 PM 32.0 °F - 32.0 °F 100% 29.60 in 10.0 mi South 2.3 mph - N/A   Overcast
10:38 PM 32.0 °F - 32.0 °F 100% 29.60 in 10.0 mi Calm Calm - N/A   Overcast
10:53 PM 32.0 °F - 32.0 °F 100% 29.60 in 10.0 mi Calm Calm - N/A   Overcast
10:58 PM 33.4 °F - 32.9 °F 98% 29.65 in 10.0 mi Calm Calm - N/A   Overcast
11:53 PM 32.0 °F 28.7 °F 32.0 °F 100% 29.62 in 10.0 mi WNW 3.5 mph - N/A   Overcast
11:58 PM 33.3 °F 30.2 °F 32.7 °F 98% 29.66 in 10.0 mi NW 3.5 mph - N/A   Overcast